Simultaneous Nadir Overpasses (SNOs) Predictions

Prediction of SNOs between AURA and NPP Satellite Orbit:

Table of predicted SNOs for the next 14.0 days since TLE Epoch: 4/3/2020
Index Date (AURA) Time (AURA) Lat,Lon (AURA) SZA (AURA ) Date (NPP) Time (NPP) Lat,Lon (NPP) SZA (NPP ) Distance(km) Time Diff (sec)
1 04/04/2020 03:41:43 -79.50,-158.62 93.23 04/04/2020 03:41:15 -79.51,-158.58 93.22 0.79 28
2 04/04/2020 04:31:04 79.69, 10.36 86.48 04/04/2020 04:31:54 79.68, 10.25 86.47 2.38 50
3 04/06/2020 19:58:08 -79.61, -41.99 94.42 04/06/2020 19:58:06 -79.62, -41.86 94.44 2.92 2
4 04/06/2020 20:45:54 81.83, 161.72 80.03 04/06/2020 20:47:07 81.31, 161.93 79.77 58.46 73
5 04/09/2020 11:25:16 79.36, -95.45 84.95 04/09/2020 11:24:24 79.35, -95.59 85.01 3.21 52
6 04/09/2020 12:14:36 -79.64, 74.07 95.47 04/09/2020 12:15:01 -79.63, 74.04 95.48 0.67 25
7 04/12/2020 03:41:41 79.50, 21.33 83.76 04/12/2020 03:41:15 79.50, 21.34 83.77 0.22 26
8 04/12/2020 04:31:01 -79.77,-169.08 96.66 04/12/2020 04:31:52 -79.77,-168.95 96.73 2.82 51
9 04/14/2020 19:10:54 -73.42, -52.84 90.00 04/14/2020 19:09:41 -73.71, -54.74 89.68 67.83 73
10 04/14/2020 19:58:08 79.55, 137.57 82.70 04/14/2020 19:58:09 79.54, 137.47 82.72 2.11 1
11 04/17/2020 11:25:14 -79.42, 84.90 98.06 04/17/2020 11:24:24 -79.41, 84.89 98.02 0.52 50




NCC Satellite Simultaneous Nadir Overpasses (SNOs) Prediction Service
